Stevens Point, WI

9:50 PM CDT on October 22, 2019 (GMT -0500)
Stevens Point Municipal

Weather History for KSTE - August, 2019

Change the Weather History Date:

Wednesday, August 28, 2019

  Actual Average Record
Temperature  
Mean Temperature 60 °F -  
Max Temperature 66 °F 77 °F 94 °F (1955)
Min Temperature 53 °F 56 °F 37 °F (1986)
Degree Days  
Heating Degree Days 6    
Growing Degree Days 10 (Base 50)    
Moisture  
Dew Point 48 °F    
Average Humidity 69    
Maximum Humidity 84    
Minimum Humidity 51    
Precipitation  
Precipitation 0.00 in - - ()
Sea Level Pressure  
Sea Level Pressure 29.84 in    
Wind  
Wind Speed 10 mph (WSW)    
Max Wind Speed 18 mph    
Max Gust Speed 30 mph    
Visibility 10 miles    
Events      
Averages and records for this station are not official NWS values.
T = Trace of Precipitation, MM = Missing Value Source: NWS Daily Summary

Daily Weather History Graph

Daily Weather History Graph

Search for Another Location

Airport or City:

Astronomy

Aug. 28, 2019 Rise Set
Actual Time 6:15 AM CDT 7:42 PM CDT
Civil Twilight 5:45 AM CDT 8:12 PM CDT
Nautical Twilight 5:08 AM CDT 8:48 PM CDT
Astronomical Twilight 4:29 AM CDT 9:27 PM CDT
Moon 3:40 AM CDT (8/28) 7:00 PM CDT (8/28)
Length of Visible Light 14h 27m
Length of Day
13h 26m
Waning Crescent, 4% of the Moon is Illuminated
Aug 28
Waning Crescent
Aug 30
New
Sep 5
First Quarter
Sep 13
Full
Sep 21
Last Quarter

Hourly Weather History & Observations

Time (CDT) Temp. Dew Point Humidity Pressure Visibility Wind Dir Wind Speed Gust Speed Precip Events Conditions
12:15 AM 56.3 °F 47.3 °F 72% 29.78 in 10.0 mi WSW 8.1 mph - N/A   Scattered Clouds
12:55 AM 55.9 °F 48.0 °F 75% 29.77 in 10.0 mi WSW 11.5 mph 17.3 mph N/A   Clear
1:15 AM 55.8 °F 48.2 °F 76% 29.77 in 10.0 mi WSW 6.9 mph - N/A   Clear
1:35 AM 55.6 °F 48.4 °F 77% 29.76 in 10.0 mi WSW 10.4 mph 17.3 mph N/A   Clear
1:55 AM 55.4 °F 48.6 °F 78% 29.76 in 10.0 mi WSW 10.4 mph - N/A   Clear
2:15 AM 55.4 °F 49.1 °F 79% 29.76 in 10.0 mi WSW 9.2 mph - N/A   Clear
2:35 AM 55.4 °F 49.1 °F 79% 29.75 in 10.0 mi WSW 11.5 mph - N/A   Clear
2:55 AM 54.9 °F 49.3 °F 81% 29.75 in 10.0 mi SW 9.2 mph - N/A   Clear
3:15 AM 54.7 °F 49.3 °F 82% 29.75 in 10.0 mi WSW 10.4 mph 16.1 mph N/A   Clear
3:35 AM 54.7 °F 49.3 °F 82% 29.75 in 10.0 mi WSW 10.4 mph 17.3 mph N/A   Clear
3:55 AM 54.5 °F 49.1 °F 82% 29.75 in 10.0 mi WSW 11.5 mph 18.4 mph N/A   Scattered Clouds
4:15 AM 54.5 °F 49.1 °F 82% 29.76 in 10.0 mi WSW 12.7 mph 19.6 mph N/A   Scattered Clouds
4:35 AM 54.7 °F 49.1 °F 81% 29.76 in 10.0 mi WSW 12.7 mph - N/A   Mostly Cloudy
4:55 AM 54.5 °F 49.1 °F 82% 29.76 in 10.0 mi WSW 13.8 mph 23.0 mph N/A   Scattered Clouds
5:15 AM 54.5 °F 48.6 °F 80% 29.78 in 10.0 mi WSW 12.7 mph 17.3 mph N/A   Scattered Clouds
5:35 AM 54.7 °F 49.1 °F 81% 29.78 in 10.0 mi WSW 9.2 mph - N/A   Mostly Cloudy
5:55 AM 54.5 °F 49.5 °F 83% 29.79 in 10.0 mi WSW 11.5 mph 17.3 mph N/A   Mostly Cloudy
6:15 AM 54.3 °F 49.1 °F 83% 29.79 in 10.0 mi WSW 9.2 mph 21.9 mph N/A   Scattered Clouds
6:35 AM 54.0 °F 49.3 °F 84% 29.80 in 10.0 mi WSW 9.2 mph - N/A   Mostly Cloudy
6:55 AM 54.0 °F 49.1 °F 84% 29.80 in 10.0 mi West 13.8 mph 18.4 mph N/A   Scattered Clouds
7:15 AM 54.5 °F 48.6 °F 80% 29.81 in 10.0 mi WSW 12.7 mph 19.6 mph N/A   Mostly Cloudy
7:35 AM 54.5 °F 48.6 °F 80% 29.81 in 10.0 mi WSW 9.2 mph - N/A   Overcast
7:55 AM 54.5 °F 48.9 °F 81% 29.81 in 10.0 mi WSW 13.8 mph 21.9 mph N/A   Overcast
8:15 AM 55.0 °F 49.3 °F 81% 29.82 in 10.0 mi West 11.5 mph 17.3 mph N/A   Overcast
8:35 AM 55.4 °F 48.7 °F 78% 29.81 in 10.0 mi WSW 10.4 mph 17.3 mph N/A   Overcast
8:55 AM 55.8 °F 49.1 °F 78% 29.82 in 10.0 mi WSW 13.8 mph 20.7 mph N/A   Overcast
9:15 AM 57.0 °F 48.6 °F 73% 29.82 in 10.0 mi West 12.7 mph 24.2 mph N/A   Overcast
9:35 AM 56.5 °F 48.6 °F 75% 29.83 in 10.0 mi West 17.3 mph 24.2 mph N/A   Overcast
9:55 AM 57.9 °F 48.9 °F 72% 29.83 in 10.0 mi West 12.7 mph 26.5 mph N/A   Overcast
10:15 AM 59.4 °F 48.0 °F 66% 29.83 in 10.0 mi West 13.8 mph 24.2 mph N/A   Overcast
10:35 AM 58.6 °F 47.3 °F 66% 29.83 in 10.0 mi West 12.7 mph 29.9 mph N/A   Overcast
10:55 AM 59.5 °F 47.3 °F 64% 29.83 in 10.0 mi West 18.4 mph 28.8 mph N/A   Overcast
11:15 AM 60.1 °F 46.6 °F 61% 29.84 in 10.0 mi WNW 15.0 mph 23.0 mph N/A   Overcast
11:35 AM 61.5 °F 46.6 °F 58% 29.84 in 10.0 mi West 18.4 mph 26.5 mph N/A   Mostly Cloudy
11:55 AM 59.9 °F 46.9 °F 62% 29.85 in 10.0 mi West 15.0 mph 24.2 mph N/A   Mostly Cloudy
12:15 PM 61.7 °F 46.9 °F 58% 29.85 in 10.0 mi West 11.5 mph 21.9 mph N/A   Overcast
12:35 PM 61.5 °F 46.8 °F 58% 29.85 in 10.0 mi West 12.7 mph 23.0 mph N/A   Overcast
12:55 PM 60.4 °F 46.4 °F 60% 29.86 in 10.0 mi West 10.4 mph 16.1 mph N/A   Overcast
1:15 PM 60.6 °F 47.1 °F 61% 29.86 in 10.0 mi WSW 10.4 mph - N/A   Overcast
1:35 PM 61.2 °F 46.4 °F 58% 29.86 in 10.0 mi West 15.0 mph 24.2 mph N/A   Overcast
1:55 PM 61.7 °F 46.6 °F 58% 29.87 in 10.0 mi West 12.7 mph 20.7 mph N/A   Overcast
2:15 PM 61.9 °F 47.3 °F 59% 29.87 in 10.0 mi West 11.5 mph 19.6 mph N/A   Overcast
2:35 PM 62.6 °F 46.4 °F 55% 29.87 in 10.0 mi West 12.7 mph 16.1 mph N/A   Overcast
2:55 PM 61.9 °F 46.4 °F 57% 29.88 in 10.0 mi West 8.1 mph - N/A   Overcast
3:15 PM 62.4 °F 46.4 °F 56% 29.87 in 10.0 mi West 11.5 mph 18.4 mph N/A   Overcast
3:35 PM 62.8 °F 46.8 °F 56% 29.88 in 10.0 mi West 11.5 mph 19.6 mph N/A   Overcast
3:55 PM 63.9 °F 47.3 °F 55% 29.87 in 10.0 mi West 13.8 mph 17.3 mph N/A   Overcast
4:15 PM 64.6 °F 47.8 °F 55% 29.87 in 10.0 mi West 12.7 mph 17.3 mph N/A   Overcast
4:35 PM 65.5 °F 48.0 °F 53% 29.87 in 10.0 mi West 10.4 mph 21.9 mph N/A   Mostly Cloudy
4:55 PM 65.7 °F 47.5 °F 52% 29.88 in 10.0 mi West 9.2 mph 21.9 mph N/A   Mostly Cloudy
5:15 PM 65.8 °F 47.3 °F 51% 29.87 in 10.0 mi West 11.5 mph 23.0 mph N/A   Mostly Cloudy
5:35 PM 66.4 °F 47.7 °F 51% 29.87 in 10.0 mi West 12.7 mph 23.0 mph N/A   Scattered Clouds
5:55 PM 65.8 °F 47.5 °F 52% 29.87 in 10.0 mi West 11.5 mph 19.6 mph N/A   Scattered Clouds
6:15 PM 65.8 °F 47.3 °F 51% 29.88 in 10.0 mi West 9.2 mph 20.7 mph N/A   Scattered Clouds
6:35 PM 65.3 °F 47.5 °F 52% 29.87 in 10.0 mi West 12.7 mph 18.4 mph N/A   Clear
6:55 PM 64.6 °F 47.5 °F 54% 29.88 in 10.0 mi West 8.1 mph 16.1 mph N/A   Clear
7:15 PM 63.9 °F 47.8 °F 56% 29.89 in 10.0 mi West 8.1 mph - N/A   Clear
7:35 PM 62.8 °F 47.5 °F 57% 29.89 in 10.0 mi WSW 6.9 mph - N/A   Clear
7:55 PM 61.9 °F 47.3 °F 59% 29.89 in 10.0 mi WSW 5.8 mph - N/A   Clear
8:15 PM 61.3 °F 46.9 °F 59% 29.89 in 10.0 mi West 4.6 mph - N/A   Clear
8:35 PM 60.1 °F 46.9 °F 62% 29.90 in 10.0 mi WSW 4.6 mph - N/A   Clear
8:55 PM 59.0 °F 47.1 °F 65% 29.90 in 10.0 mi West 3.5 mph - N/A   Clear
9:15 PM 57.9 °F 47.1 °F 67% 29.91 in 10.0 mi Calm Calm - N/A   Clear
9:35 PM 55.8 °F 47.3 °F 73% 29.91 in 10.0 mi Calm Calm - N/A   Clear
9:55 PM 55.6 °F 47.3 °F 74% 29.92 in 10.0 mi WSW 3.5 mph - N/A   Clear
10:15 PM 54.7 °F 47.1 °F 76% 29.93 in 10.0 mi WSW 3.5 mph - N/A   Clear
10:35 PM 54.5 °F 46.9 °F 76% 29.93 in 10.0 mi WSW 3.5 mph - N/A   Clear
10:55 PM 53.4 °F 46.9 °F 79% 29.93 in 10.0 mi WSW 3.5 mph - N/A   Clear
11:15 PM 53.4 °F 47.3 °F 80% 29.93 in 10.0 mi Calm Calm - N/A   Clear
11:35 PM 53.6 °F 47.5 °F 80% 29.93 in 10.0 mi WSW 3.5 mph - N/A   Clear
11:55 PM 53.4 °F 47.7 °F 81% 29.93 in 10.0 mi WSW 5.8 mph - N/A   Clear